Location: Berlise
(49.6641°N, 4.1077°E)
Time: 01:22:00
(UTC+00:00)

Cosmos 2322 Rocket - Pass Details

Date: 27 January 2021
Orbit: 833 x 850 km, 71.0° (Epoch: 28 February)

Event Time Altitude Azimuth Distance (km) Brightness Sun altitude
Exits shadow 04:20:26 14° 355° (N) 2,194 4.3 -29.4°
Drops below altitude 10° 04:21:42 10° 7° (N) 2,455 4.7 -29.1°
Sets 04:25:01 0° 26° (NNE) 3,393 5.7 -28.6°
